Flag for Sweden Weather past 2 weeks in Malmö, Sweden

Now
48 °F

Fog.


Feels Like: 43 °F
Forecast: 52 / 55 °F
Wind: 14 mph from South

Location: Malmo / Sturup

Current Time: Oct 25, 2014 at 2:59:04 AM

Latest Report: Oct 25, 2014 at 2:20 AM


Visibility: 4 mi

Pressure: 30.07 "Hg

Humidity: 94%

Dew point: 46 °F

Location of MalmöLocation

Historic Weather in Malmö — Graph

°F

Malmö temperature yesterday

Maximum temperature yesterday: 52 °F (at 8:20 AM)
Minimum temperature yesterday: 48 °F (at 12:20 AM)
Average temperature yesterday: 50 °F

Past Weeks' High & Low Weather Summary

 TemperatureHumidityPressure
High61 °F (Oct 10, 2:50 PM)100% (Oct 10, 3:20 AM)30.21 "Hg (Oct 10, 3:20 AM)
Low41 °F (Oct 13, 12:50 AM)67% (Oct 20, 6:50 PM)29.42 "Hg (Oct 21, 8:20 PM)
Average53 °F92%29.86 "Hg
* Reported Oct 10 1:20 AM — Oct 25 1:50 AM, Malmö, Weather by CustomWeather, © 2014

Note: Actual official high and low records may vary slightly from our data, if they occured in-between our weather recording intervals... More about our weather records

Advertising

Malmö weather history for previous 24 hours

 ConditionsComfort  
Time TempWeatherWind HumidityBarometerVisibility
1:50 AM
Oct 25
48 °FFog.16 mph94%30.09 "Hg4 mi
1:20 AM48 °FFog.15 mph94%30.09 "Hg4 mi
12:50 AM48 °FFog.17 mph94%30.09 "Hg4 mi
12:20 AM48 °FFog.17 mph94%30.09 "Hg4 mi
11:50 PM
Oct 24
48 °FFog.15 mph94%30.09 "Hg4 mi
11:20 PM48 °FFog.16 mph94%30.09 "Hg4 mi
10:50 PM48 °FFog.16 mph94%30.12 "Hg4 mi
10:20 PM48 °FFog.16 mph94%30.12 "Hg5 mi
9:50 PM50 °FFog.15 mph88%30.12 "Hg5 mi
9:20 PM50 °FFog.15 mph94%30.12 "Hg5 mi
8:50 PM50 °FFog.14 mph94%30.12 "Hg6 mi
8:20 PM50 °FFog.14 mph94%30.12 "Hg5 mi
7:50 PM50 °FFog.13 mph94%30.12 "Hg6 mi
7:20 PM50 °FFog.14 mph94%30.12 "Hg6 mi
6:50 PM50 °FPassing clouds.15 mph94%30.12 "HgN/A
6:20 PM52 °FFog.15 mph88%30.12 "Hg5 mi
5:50 PM52 °FFog.13 mph88%30.12 "Hg4 mi
5:20 PM52 °FFog.15 mph88%30.12 "Hg4 mi
4:50 PM52 °FFog.15 mph88%30.12 "Hg4 mi
4:20 PM52 °FFog.15 mph88%30.12 "Hg4 mi
3:50 PM52 °FFog.15 mph88%30.12 "Hg4 mi
3:20 PM52 °FFog.15 mph88%30.15 "Hg6 mi
2:50 PM52 °FFog.15 mph88%30.15 "Hg6 mi
2:20 PM52 °FFog.17 mph88%30.15 "Hg5 mi
1:50 PM52 °FFog.16 mph88%30.15 "Hg5 mi
1:20 PM52 °FFog.17 mph88%30.15 "Hg5 mi
12:50 PM52 °FFog.15 mph94%30.15 "Hg5 mi
12:20 PM52 °FFog.15 mph88%30.18 "Hg4 mi
11:50 AM52 °FFog.14 mph94%30.15 "Hg4 mi
11:20 AM52 °FFog.15 mph88%30.15 "Hg4 mi
10:50 AM52 °FFog.16 mph88%30.15 "Hg4 mi
10:20 AM52 °FFog.15 mph88%30.15 "Hg4 mi
9:50 AM52 °FFog.15 mph88%30.15 "Hg4 mi
9:20 AM52 °FFog.13 mph94%30.15 "Hg4 mi
8:50 AM52 °FFog.14 mph94%30.15 "Hg4 mi
8:20 AM52 °FFog.14 mph94%30.15 "Hg4 mi
7:50 AM50 °FFog.13 mph94%30.15 "Hg4 mi
7:20 AM50 °FFog.13 mph94%30.15 "Hg3 mi
6:50 AM50 °FFog.14 mph94%30.15 "Hg4 mi
6:20 AM50 °FFog.13 mph94%30.15 "Hg3 mi
5:50 AM50 °FMostly cloudy.10 mph94%30.15 "HgN/A
5:20 AM50 °FMostly cloudy.12 mph94%30.15 "HgN/A
4:50 AM50 °FOvercast.10 mph94%30.15 "HgN/A
4:20 AM50 °FMostly cloudy.7 mph94%30.15 "HgN/A
3:50 AM50 °FOvercast.7 mph94%30.18 "HgN/A
3:20 AM50 °FMostly cloudy.7 mph88%30.18 "HgN/A
2:50 AM50 °FMostly cloudy.8 mph88%30.18 "HgN/A
2:20 AM48 °FPassing clouds.8 mph94%30.18 "HgN/A
Weather by CustomWeather, © 2014

See weather overviewHow to use our weather pages